GFSSE_700_rhum_144.txt.gz
RH
44 50 53 61 55 48 43 51 48 42 34 27 26 21 22 31 45 52 60 64 57 45 29 14 10 40 57 67 46 58 63 66 61 52 44 30 9 10 14 13 13 11 9
49 47 62 64 57 50 46 45 50 48 42 32 28 23 22 26 34 45 60 64 61 45 25 11 28 39 55 59 54 63 66 74 66 54 40 22 10 14 15 14 12 9 8
46 51 53 50 55 52 49 45 49 50 48 40 32 25 23 23 30 41 55 57 64 48 22 8 16 45 25 41 40 70 68 70 62 46 31 12 12 17 15 13 10 8 8
42 45 63 65 62 52 48 51 50 51 50 47 46 31 25 25 28 41 51 53 62 58 29 9 14 31 14 18 22 56 70 62 54 39 25 10 15 17 15 13 8 8 11
28 40 61 62 59 53 53 52 52 52 53 51 45 46 70 29 31 43 47 51 59 58 41 15 14 14 14 16 19 34 54 60 52 38 18 12 17 17 15 10 8 10 18
51 47 54 62 67 63 66 66 59 57 57 54 50 45 42 30 32 46 49 47 50 57 40 21 12 15 15 16 17 27 51 57 43 30 13 13 18 16 13 8 10 18 24
69 67 67 66 66 71 65 65 66 63 62 59 56 50 42 33 32 44 52 49 47 58 44 26 11 14 15 16 17 20 47 48 38 28 12 15 18 15 10 10 18 25 25
49 76 79 74 75 70 67 70 73 71 66 65 62 56 49 43 36 41 51 52 55 62 47 34 14 14 14 14 16 19 32 38 31 15 12 16 18 15 10 18 25 27 26
36 62 77 81 77 77 74 70 76 83 79 72 70 64 58 53 47 50 54 56 60 68 53 41 23 15 15 14 14 16 15 14 12 13 13 18 17 14 12 21 26 27 30
43 48 61 68 75 77 73 72 77 82 90 90 87 79 66 62 58 62 62 66 70 73 64 53 32 19 16 16 14 14 14 13 14 15 15 18 17 14 15 23 25 25 36
44 58 68 69 66 69 73 71 76 76 80 84 93 94 87 76 75 70 60 64 64 76 74 61 42 41 18 17 15 15 14 14 16 16 18 19 17 15 20 24 25 25 30
56 47 59 75 73 71 71 77 78 79 82 80 83 88 91 86 78 76 73 68 71 69 83 70 58 38 22 20 17 15 14 15 16 17 20 20 17 16 21 26 25 25 30
53 61 54 65 67 69 65 66 66 67 66 64 68 78 79 88 86 84 85 86 80 66 73 80 67 54 29 22 20 17 15 17 17 18 22 20 18 18 23 26 26 25 35
36 46 51 51 56 65 63 59 57 56 56 58 55 54 64 83 84 89 89 86 82 82 69 73 77 67 48 27 21 18 16 17 18 20 22 21 19 19 25 27 24 27 43
28 32 34 38 45 50 50 54 56 56 55 56 56 50 48 55 76 84 93 91 89 82 75 66 76 75 67 42 25 20 17 18 19 19 23 21 20 20 27 28 24 33 49
13 13 22 35 34 33 40 48 49 51 54 56 57 54 50 50 50 60 66 90 99 90 81 68 68 82 74 61 33 23 18 18 19 19 21 21 21 20 28 28 26 40 51
17 12 11 11 16 32 33 32 34 43 46 47 51 56 56 54 49 44 46 55 88 92 92 74 63 66 83 72 54 29 22 18 20 20 23 21 21 21 28 29 29 47 51
18 19 18 13 10 10 13 23 31 31 30 35 44 46 46 49 50 49 44 40 52 80 92 90 69 62 77 82 71 44 26 20 20 21 24 23 21 22 28 29 31 50 52
11 15 17 18 16 13 9 9 11 14 21 28 30 30 34 38 38 37 41 43 40 46 59 79 88 69 60 88 82 68 35 25 20 21 23 24 20 23 28 29 36 52 51
7 7 7 11 16 16 14 11 9 8 9 11 14 18 22 24 24 24 21 28 37 42 39 58 96 96 76 80 92 82 54 31 23 20 21 24 21 22 28 29 38 52 51
16 11 10 8 7 9 15 15 12 10 8 8 8 9 12 17 19 17 17 17 19 29 42 40 80 94 99 79 92 87 76 46 30 22 21 23 22 21 27 29 39 53 52
23 19 19 17 17 13 8 9 14 12 10 9 8 8 11 18 22 19 15 14 40 24 46 67 72 90 89 88 77 86 87 68 51 30 21 21 23 22 25 29 37 53 53
34 33 24 24 27 23 20 13 9 14 14 12 10 10 10 15 18 16 12 8 28 35 58 51 66 86 90 94 97 85 93 76 71 55 26 21 24 23 24 29 36 54 53
22 36 34 33 34 34 25 23 12 10 14 14 10 9 9 11 14 11 9 6 6 24 36 26 45 94 84 92 98 97 94 85 80 76 42 26 24 24 24 29 34 54 54
12 13 11 10 11 10 33 25 20 13 11 18 19 15 12 10 9 8 8 6 6 6 29 38 44 64 81 99 94 100 92 89 87 82 74 35 26 25 24 28 34 53 55
13 14 15 14 15 15 23 30 24 17 16 25 23 20 15 10 9 8 8 7 6 7 7 17 23 12 70 98 98 99 97 95 98 90 84 54 28 28 26 27 33 54 57

GFSSE_700_rhum_147.txt.gz
RH
43 52 50 50 56 48 47 51 45 38 31 24 23 18 23 28 40 43 53 60 55 39 19 11 40 58 80 53 52 53 58 64 57 50 38 18 10 14 12 11 10 9 8
38 46 50 52 60 52 47 47 50 46 40 31 26 20 20 26 38 44 55 58 59 46 16 20 41 39 59 54 57 60 67 70 63 52 36 13 12 15 13 12 10 8 9
32 44 49 60 58 51 50 46 50 50 47 40 32 24 20 23 35 44 53 56 60 49 23 15 45 43 29 48 48 66 65 69 61 47 27 10 15 15 14 12 8 8 11
30 45 50 58 50 54 52 52 50 52 50 47 45 32 24 24 30 42 50 52 60 55 31 11 28 44 19 25 28 60 68 62 54 45 26 10 16 15 13 9 7 10 16
30 44 55 56 59 63 53 53 56 52 55 54 56 67 50 26 31 44 49 52 56 58 37 18 14 16 16 18 21 36 58 58 50 44 19 11 16 15 12 8 8 14 22
16 38 45 60 62 66 60 56 62 58 62 57 54 48 58 33 32 47 51 52 56 60 52 25 12 15 16 16 20 27 45 58 44 33 15 12 16 14 10 7 12 21 23
49 36 41 55 62 65 62 63 62 60 60 60 56 50 45 45 32 46 55 55 57 64 54 33 14 16 16 17 18 22 43 52 38 30 12 14 16 14 9 10 18 22 22
58 73 69 60 66 67 60 66 62 65 64 65 60 56 50 53 44 44 59 58 57 69 52 39 17 17 16 16 17 20 34 41 35 20 13 16 17 13 10 16 22 23 24
29 52 77 79 72 69 67 63 60 65 69 71 70 64 57 50 47 44 60 64 61 67 62 50 24 20 19 16 15 17 19 19 15 13 14 18 18 13 12 21 25 24 33
26 28 38 81 82 80 74 67 64 60 70 76 75 71 68 62 56 50 50 58 60 67 68 67 35 24 20 18 16 16 15 14 14 15 15 19 19 15 17 23 25 26 36
32 30 37 51 79 79 79 76 72 63 66 75 82 82 80 75 68 63 59 59 59 70 71 69 58 50 25 18 17 15 15 15 16 16 16 20 19 17 21 26 26 26 33
34 36 36 51 59 66 66 68 75 68 68 65 67 78 82 84 82 76 78 75 57 55 65 67 66 57 49 22 18 17 16 15 16 18 18 20 20 18 23 27 26 26 30
36 36 40 43 63 79 78 67 68 69 74 73 69 70 74 82 85 86 80 84 74 69 64 67 68 67 56 40 24 18 15 15 17 17 18 21 20 18 21 28 27 25 29
30 35 40 40 45 56 75 82 76 78 82 75 74 72 64 74 77 79 84 85 87 89 83 76 66 68 70 59 41 24 18 14 16 18 18 20 21 19 20 26 27 26 32
14 19 30 37 41 47 57 67 73 72 72 72 66 62 56 54 59 71 80 87 89 91 87 85 72 65 69 69 58 37 22 16 14 15 16 21 22 20 20 25 27 25 38
20 18 15 26 36 35 44 51 53 60 64 64 61 57 55 53 44 52 61 76 84 92 93 88 86 70 69 74 70 56 32 20 16 15 15 19 22 20 20 23 28 25 41
16 20 20 17 14 28 32 34 38 44 50 50 54 59 58 58 54 47 49 57 66 74 91 96 89 82 69 72 75 70 51 29 20 16 17 16 19 20 21 22 30 26 41
13 15 17 17 19 17 14 19 27 34 35 41 48 49 53 57 58 54 49 46 51 63 64 79 91 89 82 70 78 79 70 46 27 20 17 18 18 20 20 20 28 27 43
6 7 9 10 14 16 19 17 12 14 25 34 34 39 46 48 49 55 54 50 50 57 64 54 62 85 97 82 70 83 81 70 45 26 20 18 18 19 18 20 25 27 41
11 9 8 7 7 7 11 16 18 16 11 14 22 32 33 35 42 46 46 48 52 54 58 59 50 59 91 95 76 74 84 83 70 42 25 20 17 19 19 18 23 26 38
24 19 15 14 15 14 9 7 9 15 17 15 10 11 18 30 32 32 35 42 43 40 42 47 57 52 68 80 96 81 81 77 81 70 39 25 18 18 20 19 21 26 33
31 31 25 24 23 21 19 16 11 7 9 16 16 14 10 11 17 27 30 28 29 28 28 27 29 43 62 82 94 100 85 84 72 71 69 45 27 19 19 20 20 26 30
37 35 33 29 29 29 30 24 20 18 12 8 11 16 14 11 9 10 16 20 20 21 21 20 25 51 50 85 84 100 99 85 76 75 75 67 41 25 20 21 20 24 29
52 47 43 42 31 27 39 35 27 26 22 17 13 10 15 14 11 10 10 14 21 20 25 32 42 47 58 64 84 100 100 98 88 83 80 85 84 51 24 22 21 22 28
55 51 38 14 13 23 33 30 22 18 20 30 24 19 12 16 15 12 10 11 15 23 21 38 37 52 62 78 79 82 100 99 96 99 84 88 92 75 66 27 24 23 27
35 31 16 14 12 11 12 13 14 13 12 17 31 24 15 16 20 17 13 11 12 18 17 18 32 53 61 50 72 63 72 96 98 99 98 94 90 90 89 40 28 27 26

GFSSE_700_rhum_150.txt.gz
RH
35 51 55 58 54 50 42 47 44 38 30 25 19 18 20 29 38 50 56 58 52 32 11 42 58 82 61 50 52 57 68 63 57 47 31 9 12 14 12 9 8 7 10
31 44 51 50 54 54 47 42 50 46 41 32 25 19 18 23 34 46 52 58 54 35 11 35 46 64 51 55 61 66 73 68 59 48 29 9 14 13 11 8 7 8 13
37 32 47 50 55 58 49 50 48 50 48 41 33 25 20 22 33 44 48 56 56 47 17 16 48 62 25 45 54 65 68 69 56 44 25 9 15 12 11 8 7 10 17
30 31 40 52 61 56 50 50 48 51 50 47 44 33 25 25 31 42 50 55 59 49 52 41 39 36 17 27 34 65 60 60 53 41 17 10 15 13 11 7 8 14 19
20 20 39 50 60 51 57 51 50 50 55 52 50 72 47 50 29 39 46 56 64 60 44 51 53 16 15 19 24 43 58 54 50 37 13 12 16 13 10 7 11 18 21
12 28 46 46 50 55 62 59 53 52 54 57 60 61 60 57 29 38 42 50 56 58 70 42 22 17 16 16 21 28 46 57 45 33 12 14 16 13 9 9 16 22 22
20 18 41 45 58 62 59 59 55 57 55 61 58 53 50 48 42 41 46 50 53 58 63 61 16 16 16 15 18 22 38 53 40 33 13 14 16 13 9 14 22 24 25
22 36 29 36 53 63 62 61 59 57 58 58 59 57 54 56 71 38 42 50 54 62 52 57 21 16 16 16 15 18 30 40 38 28 12 15 17 12 11 19 25 25 31
18 29 49 54 50 59 69 66 57 62 58 63 64 63 59 55 52 42 42 45 48 59 63 64 36 22 16 15 14 14 18 22 19 13 13 16 17 13 15 22 25 26 36
18 17 32 53 66 69 69 70 69 65 60 63 70 68 66 63 58 53 46 43 52 55 62 68 59 37 25 15 14 14 13 13 12 13 13 17 17 14 16 22 25 28 35
28 29 27 26 31 48 76 77 74 72 67 63 70 77 73 68 68 63 61 53 52 57 70 62 64 55 54 26 16 14 13 12 12 12 15 18 18 16 18 22 24 26 31
25 28 30 31 29 35 46 76 83 78 72 69 71 79 82 82 80 77 74 72 63 53 54 70 61 61 57 48 26 18 14 12 11 11 14 16 19 18 18 21 25 26 28
16 20 25 29 32 34 45 48 58 71 75 70 73 75 78 78 73 79 83 77 77 73 64 62 57 65 64 59 44 28 20 14 11 10 13 14 16 18 19 21 24 24 24
16 14 15 20 28 32 38 42 66 68 72 68 73 69 69 78 79 77 85 88 86 87 85 80 75 68 64 61 62 46 30 19 14 11 13 13 16 18 17 18 24 24 24
21 21 17 17 22 30 38 41 50 62 78 79 83 87 76 74 77 80 74 80 83 86 89 90 85 80 69 61 59 65 49 33 19 14 13 14 15 18 18 18 20 24 23
13 17 21 20 17 16 22 31 41 54 64 70 76 81 89 82 71 64 63 70 65 79 92 92 93 90 86 75 64 61 66 53 34 20 14 15 15 17 19 19 19 24 23
10 11 12 14 19 20 18 17 25 31 45 58 71 80 75 71 71 68 61 56 48 66 78 79 89 96 92 84 77 66 64 67 56 36 23 15 15 16 18 18 20 23 24
8 9 9 10 12 14 17 19 17 18 25 36 47 55 67 73 69 67 64 63 54 58 62 64 70 76 97 94 88 80 71 73 72 57 37 25 16 15 17 18 18 21 25
6 5 6 6 7 8 10 13 16 18 17 17 29 37 42 53 57 62 68 64 63 64 66 63 65 64 70 88 91 96 82 72 78 75 64 40 28 16 16 18 18 18 25
9 7 7 8 7 7 6 6 7 11 16 18 17 16 31 36 43 53 54 62 65 64 64 69 68 65 57 61 86 94 96 85 70 76 78 66 44 30 17 18 18 18 22
16 14 12 9 9 13 17 13 12 8 7 9 16 18 16 16 34 37 46 51 55 60 62 63 67 73 69 61 75 93 95 95 84 72 75 75 71 51 28 17 18 19 19
31 27 24 24 23 20 16 18 22 21 18 15 9 10 18 18 14 18 35 37 41 46 50 51 51 52 58 63 65 94 98 96 84 83 81 70 74 71 53 24 18 19 20
35 39 39 40 40 37 35 30 27 23 23 24 19 15 9 11 18 16 13 21 33 35 37 41 43 43 44 44 54 62 64 70 69 76 86 79 81 77 67 54 26 20 20
52 52 50 48 48 48 46 40 40 40 34 29 31 24 19 14 8 12 17 14 14 19 30 34 34 33 32 33 35 38 53 78 81 77 76 87 88 86 79 88 84 51 23
57 54 46 35 46 52 40 20 18 20 27 37 41 34 27 24 20 15 10 15 16 14 14 23 29 35 40 36 47 53 74 72 83 69 82 80 96 91 90 84 91 61 27
66 60 32 17 21 22 24 24 23 17 13 14 14 17 17 20 28 28 21 12 15 16 14 16 29 33 23 23 44 36 39 73 100 82 95 75 83 87 98 98 94 94 86

GFSSE_700_rhum_156.txt.gz
RH
48 56 66 64 54 49 43 46 42 35 29 23 18 18 23 33 45 51 54 48 22 31 44 72 74 51 34 37 42 48 56 56 49 33 9 11 11 9 8 7 10 14 18
47 48 57 66 64 54 47 44 48 46 40 33 25 20 20 29 40 45 50 50 33 26 71 51 74 57 21 37 52 60 63 57 50 34 10 12 11 9 7 7 10 16 18
41 37 47 59 58 57 53 46 44 49 48 43 36 27 21 23 33 40 43 49 56 46 77 51 84 58 16 21 38 57 68 62 51 33 11 12 12 9 7 8 12 17 17
35 39 36 53 56 61 58 52 50 49 50 50 46 41 31 23 27 36 41 44 63 78 74 44 82 35 15 15 18 36 52 57 51 37 12 12 12 10 7 8 14 18 18
12 13 40 39 48 56 64 58 54 52 50 52 50 48 49 49 31 28 37 40 58 66 72 71 51 18 14 14 13 16 27 40 45 39 14 11 13 10 7 9 16 18 20
22 10 23 38 46 54 63 60 57 54 55 53 53 53 56 58 57 30 33 39 39 50 67 61 19 14 14 13 12 13 14 27 39 37 16 12 13 10 8 10 16 19 23
14 18 18 49 43 57 69 69 57 62 56 58 57 60 58 53 55 46 32 36 41 42 50 80 38 14 12 13 12 12 14 21 34 33 21 11 13 10 9 14 18 20 29
11 15 20 29 44 57 64 71 69 70 66 58 58 58 62 61 53 54 60 38 41 41 49 54 62 26 18 13 12 11 12 15 20 28 22 11 14 11 10 15 21 22 29
13 11 12 26 32 47 58 86 85 76 83 76 68 63 61 66 62 58 62 49 41 42 45 54 62 41 34 24 13 12 11 10 11 11 10 11 14 13 12 15 18 22 31
17 17 14 14 26 46 40 61 73 81 90 87 77 71 65 69 72 68 60 53 48 46 46 50 59 69 49 43 29 17 12 10 10 10 11 10 13 14 12 17 21 22 28
20 21 21 18 16 18 57 56 58 73 85 84 79 78 72 71 76 75 74 63 58 54 51 53 60 60 61 53 47 34 26 14 11 10 11 12 14 15 14 15 20 22 26
15 20 22 24 25 24 21 24 41 63 70 79 82 79 71 70 72 79 81 78 72 64 60 57 55 62 62 58 55 47 40 30 14 11 10 11 13 17 16 16 20 22 23
17 15 15 18 23 27 28 26 24 20 32 54 76 80 80 76 75 74 81 87 86 81 74 70 63 57 66 63 61 56 53 46 32 15 11 11 12 14 17 16 20 25 23
23 23 21 18 17 19 24 28 32 29 26 23 30 73 78 77 78 78 76 82 87 91 89 82 79 73 70 69 67 63 59 56 52 35 17 12 12 13 15 16 16 22 24
13 15 18 19 20 20 18 18 20 26 30 32 28 40 43 52 66 68 72 74 77 90 88 93 86 87 81 82 75 69 66 62 58 55 39 21 13 12 14 16 17 18 22
9 9 9 9 10 12 15 19 20 19 20 26 31 34 38 44 52 62 73 75 74 82 86 94 95 95 94 94 89 83 79 74 66 61 58 42 25 15 14 14 17 17 19
7 6 6 7 7 8 8 8 10 16 20 20 24 31 36 39 44 59 68 75 77 78 88 95 90 96 94 91 92 94 92 88 78 70 65 62 45 31 17 14 15 17 18
8 8 8 8 8 7 7 7 8 8 10 15 20 22 29 38 41 44 65 72 80 98 99 91 87 82 81 84 95 90 96 97 95 86 76 68 67 49 36 19 16 16 18
7 7 6 6 6 6 6 6 6 6 7 8 9 14 19 22 33 43 47 69 79 80 92 100 96 82 79 74 77 85 88 89 97 96 91 81 72 70 55 38 24 17 16
8 8 7 6 6 6 6 6 6 7 6 6 6 6 10 15 19 24 33 41 68 85 78 84 92 98 86 78 74 72 82 83 91 91 89 87 84 76 72 62 46 30 18
17 14 12 10 11 10 9 8 8 9 11 13 11 10 9 7 10 18 20 28 41 50 76 84 83 85 88 92 92 84 85 88 95 83 62 61 82 86 77 77 72 59 34
16 17 19 21 23 25 27 29 27 23 22 23 24 23 21 14 10 8 10 18 21 36 46 56 70 73 76 78 85 99 98 87 90 88 75 68 62 78 84 87 78 80 61
36 34 34 35 36 38 40 36 36 37 34 33 34 34 36 39 30 20 15 11 11 18 23 38 46 52 64 68 72 77 87 85 89 87 90 92 77 70 61 68 87 90 83
54 54 53 51 48 46 44 42 42 42 41 42 42 41 41 45 46 42 30 20 20 13 12 18 24 39 46 50 61 65 73 76 77 81 98 99 98 76 68 56 62 81 92
56 53 50 48 45 42 41 44 44 45 46 43 36 32 40 42 39 38 42 39 28 26 20 13 13 19 24 41 45 49 55 60 75 83 77 75 77 73 67 52 46 64 75
44 37 34 31 31 41 44 46 54 55 44 34 29 20 17 17 16 19 29 41 44 37 32 25 17 14 17 19 33 50 49 48 52 58 67 68 65 61 76 68 65 77 83

GFSSE_700_rhum_159.txt.gz
RH
52 59 62 62 54 51 47 45 42 35 30 26 22 21 22 31 40 45 48 46 20 36 54 71 72 44 22 30 41 49 50 50 46 28 8 12 10 8 8 8 12 16 16
43 46 48 60 61 57 50 47 47 46 41 36 30 24 21 27 35 41 44 47 36 49 69 60 75 62 17 22 37 50 57 56 47 30 9 13 11 9 7 8 13 17 17
49 44 41 53 58 57 52 50 46 48 49 46 40 33 26 23 29 36 39 43 58 62 79 50 82 72 15 18 21 36 53 58 50 36 11 12 11 9 7 9 14 17 18
38 42 36 44 53 56 56 54 53 49 49 50 48 42 36 31 26 32 37 39 55 71 76 52 72 55 13 13 15 19 32 49 48 39 16 12 12 9 7 10 15 17 19
21 17 31 42 46 54 55 61 58 53 53 51 51 51 52 54 54 34 35 39 45 64 62 81 52 20 12 11 12 13 19 31 42 39 22 11 13 10 7 12 17 18 21
26 24 16 53 46 49 50 64 64 60 56 53 52 54 54 60 58 58 34 36 42 45 61 67 60 19 12 11 11 11 14 24 37 37 25 11 14 10 8 11 17 18 25
16 11 21 24 57 51 70 70 68 67 63 60 60 58 63 62 56 58 47 36 41 44 51 56 74 42 19 14 11 10 10 16 31 31 27 10 14 11 9 12 18 20 24
12 11 17 18 54 49 63 77 75 72 70 71 64 63 62 61 64 57 55 61 42 44 45 51 54 54 31 25 15 11 10 10 15 23 22 10 12 12 10 15 19 22 28
15 12 11 14 18 23 55 61 72 74 81 82 81 77 71 67 66 69 61 63 60 44 48 48 57 62 46 38 28 16 12 10 10 10 10 10 11 13 11 13 18 21 28
18 19 16 13 12 21 33 42 44 67 71 70 78 77 69 73 72 72 73 68 59 52 49 49 53 62 66 53 45 31 20 12 10 10 10 10 13 14 12 12 15 20 26
18 18 20 23 21 16 26 36 46 43 60 73 74 82 79 74 76 73 75 77 73 61 56 53 52 60 65 60 53 49 37 24 13 10 9 10 11 14 15 14 16 19 24
15 15 16 20 22 25 23 23 58 62 56 62 67 75 81 81 78 74 73 78 80 77 70 62 58 58 62 65 59 53 49 41 26 14 11 10 11 12 15 15 16 19 25
21 18 16 15 16 22 25 24 25 23 30 45 61 69 76 82 80 76 76 76 82 88 85 79 70 66 62 66 65 59 54 52 43 29 16 11 11 12 14 16 16 16 21
23 24 24 23 19 16 16 18 21 22 22 22 20 29 47 75 85 89 86 78 80 84 90 93 88 79 72 68 70 65 60 54 56 45 32 18 12 12 12 14 16 16 18
11 13 14 16 16 18 21 20 18 16 16 20 23 26 26 25 69 93 90 78 80 83 79 82 91 92 83 80 76 74 69 64 62 60 49 35 21 14 13 13 16 17 17
7 7 7 7 7 7 8 10 14 18 20 19 19 20 25 28 28 38 73 83 80 85 87 80 89 95 94 88 88 82 80 75 75 69 64 55 39 24 16 12 13 16 17
8 8 8 8 8 7 7 7 7 7 7 11 17 20 21 23 26 34 37 43 61 72 89 88 91 97 97 96 90 89 90 88 86 84 73 68 61 45 27 18 14 14 17
9 8 8 8 8 8 8 7 8 8 8 8 9 11 15 19 21 23 28 36 54 74 79 99 79 96 98 100 95 96 88 92 93 90 89 79 72 67 50 31 22 16 15
8 8 8 8 7 7 7 6 6 6 6 6 6 6 8 11 14 18 21 23 33 55 80 87 98 90 72 96 92 91 93 85 87 97 95 88 86 77 70 57 38 26 19
9 8 7 7 7 6 6 6 6 6 6 6 6 6 6 6 8 13 16 18 22 28 40 67 90 92 98 92 87 82 81 82 89 82 87 98 90 91 80 73 65 47 31
16 14 13 12 11 8 6 6 6 6 6 8 10 10 9 8 8 7 7 12 18 19 22 33 54 83 90 80 98 100 86 82 82 86 85 83 89 87 92 83 75 72 60
39 36 36 34 33 31 27 25 23 22 22 23 24 23 22 20 17 14 12 9 9 12 19 21 27 45 67 86 83 82 97 97 93 78 77 77 79 83 82 86 87 78 78
50 48 48 48 46 45 42 39 38 35 33 34 35 33 33 35 35 36 32 22 16 14 10 13 21 28 39 58 78 83 82 83 82 98 98 91 88 87 81 76 86 91 90
54 52 47 46 43 41 40 39 39 37 35 37 39 41 42 41 43 44 46 45 37 29 21 16 13 16 25 32 49 60 72 75 75 70 77 92 96 96 97 93 76 81 81
58 45 30 22 20 24 20 29 36 43 43 37 43 50 46 45 43 46 45 45 47 49 46 37 25 20 15 19 27 38 47 55 65 69 68 64 73 89 98 99 97 95 85
55 25 18 15 16 13 18 36 53 58 56 53 51 51 56 43 33 27 28 32 34 38 45 48 45 34 28 19 16 31 47 38 47 52 59 61 63 65 73 78 90 92 74